#timestamp,LO_Frequency,Hit,StdDev 
1551592815.3,286047000.4,N
1551592835.1,286046995.4,N
1551592855.8,286046992.3,N
1551592875.7,286047001.0,N
1551592895.5,286047005.0,N
1551592915.3,286047008.3,N
1551592935.2,286047010.5,N
1551592955.0,286047006.4,N
1551592955.9,286047006.4,N
1551592975.8,286047000.8,N
1551592995.6,286046998.0,N
1551593015.4,286047004.1,N
1551593035.3,286047015.8,N
1551593055.1,286047018.3,N
1551593075.9,286047016.0,N
1551593095.7,286047019.0,N
1551593115.5,286047020.5,N
1551593135.4,286047017.4,N
1551593155.2,286047021.6,N
1551593175.0,286047026.8,N
1551593175.9,286047026.8,N
1551593195.8,286047020.4,N
1551593215.6,286047023.8,N
1551593235.5,286047031.0,N
1551593255.3,286047032.4,N
1551593275.1,286047035.5,Y
1551593295.9,286047022.9,P
1551593315.7,286047012.4,N
1551593335.5,286047012.6,N
1551593355.4,286047020.2,Y
1551593375.2,286047008.0,P
1551593395.1,286047012.9,P
1551593396.0,286047012.9,P
1551593415.8,286047020.7,Y
1551593435.6,286047007.6,P
1551593455.5,286047005.2,N
1551593475.3,286047002.1,N
1551593495.2,286046997.0,N
1551593515.9,286046995.1,N
1551593535.7,286046997.3,N
1551593555.6,286046991.5,N
1551593575.4,286046987.1,N
1551593595.2,286046987.1,N
1551593615.1,286046983.6,N
1551593616.0,286046983.6,N
1551593635.8,286046991.0,N
1551593655.7,286046980.7,N
1551593675.5,286046987.1,N
1551593695.3,286046982.4,N
1551593715.2,286046984.6,N
1551593735.9,286046979.0,N
1551593755.7,286046983.4,N
1551593775.6,286046974.4,N
1551593795.4,286046970.9,N
1551593815.2,286046980.4,N
1551593835.1,286046984.0,N
1551593836.0,286046984.0,N
1551593855.8,286046988.8,N
1551593875.7,286047001.3,N
1551593895.5,286047020.0,N
1551593915.3,286047024.4,N
1551593935.2,286047021.5,N
1551593955.0,286047011.1,N
1551593955.9,286047011.1,N
1551593975.8,286047013.6,N
1551593995.6,286047008.9,N
1551594015.4,286047005.9,N
1551594035.3,286046999.2,N
1551594055.1,286046983.8,N
1551594075.8,286046980.5,N
1551594095.7,286046985.2,N
1551594115.5,286046979.2,N
1551594135.4,286046988.4,N
1551594155.2,286046992.2,N
1551594175.0,286046991.0,N
1551594175.9,286046991.0,N
1551594195.8,286046987.6,N
1551594215.6,286046981.0,N
1551594235.4,286046989.9,N
1551594255.3,286046992.3,N
1551594275.1,286046985.5,N
1551594295.9,286046984.9,N
1551594315.7,286046986.0,N
1551594335.5,286046978.4,N
1551594355.4,286046974.1,N
1551594375.2,286046978.5,N
1551594395.0,286046976.1,N
1551594396.0,286046976.1,N
1551594415.8,286046975.1,N
1551594435.6,286046974.1,N
1551594455.5,286046982.8,N
1551594475.3,286046991.4,N
1551594495.1,286046990.4,N
1551594515.9,286046996.7,N
1551594535.7,286046997.7,N
1551594555.6,286047002.3,N
1551594575.4,286046998.9,N
1551594595.2,286047002.2,N
1551594615.1,286046998.7,N
1551594616.0,286046998.7,N
1551594635.8,286046995.8,N
1551594655.6,286046992.2,N
1551594675.5,286046989.0,N
1551594695.3,286046984.1,N
1551594715.2,286046983.3,N
1551594735.9,286046979.5,N
1551594755.7,286046976.4,N
1551594775.6,286046983.3,N
1551594795.4,286046985.9,N
1551594815.2,286046971.2,Y
1551594835.1,286046980.3,P
1551594836.0,286046980.3,P
1551594855.8,286046985.3,P
1551594875.7,286046991.5,N
1551594895.5,286046983.9,Y
1551594915.3,286046994.6,P
1551594935.2,286046986.2,N
1551594955.0,286046987.5,N
1551594955.9,286046987.5,Y
1551594975.8,286047006.7,P
1551594995.6,286047006.7,N
1551595015.4,286047000.1,N
1551595035.3,286047004.0,N
1551595055.1,286047011.2,N
1551595075.8,286047024.5,Y
1551595095.7,286047023.9,P
1551595115.5,286047029.8,N
1551595135.4,286047030.5,N
1551595155.2,286047030.2,N
1551595175.0,286047033.1,Y
1551595175.9,286047033.1,P
1551595195.8,286047011.4,N
1551595215.6,286047003.2,N
1551595235.5,286047001.3,N
1551595255.3,286046997.5,N
1551595275.1,286046989.9,N
1551595295.9,286046994.5,N
1551595315.7,286047002.8,N
1551595335.5,286047001.8,N
1551595355.4,286046996.8,N
1551595375.2,286046995.9,N
1551595395.0,286046993.6,N
1551595396.0,286046993.6,N
1551595415.8,286046991.2,N
1551595435.6,286046992.6,N
1551595455.5,286046985.3,N
1551595475.3,286046982.2,N
1551595495.1,286046976.9,N
1551595515.9,286046969.3,N
1551595535.7,286046972.4,N
1551595555.6,286046982.3,N
1551595575.4,286046985.3,N
1551595595.2,286046989.0,N
1551595615.1,286046982.0,N
1551595616.0,286046982.0,N
1551595635.8,286046978.3,N
1551595655.7,286046979.3,N
1551595675.5,286046987.4,N
1551595695.3,286046978.0,N
1551595715.2,286046977.1,N
1551595735.0,286046979.2,N
1551595735.9,286046979.2,N
1551595755.8,286046973.3,N
1551595775.6,286046964.5,Y
1551595795.4,286046984.8,P
1551595815.3,286046979.4,P
1551595835.1,286046995.8,N
1551595855.8,286046990.8,N
1551595875.7,286046994.1,N
1551595895.5,286046988.4,N
1551595915.4,286046978.9,Y
1551595935.2,286046992.9,P
1551595955.0,286046994.7,N
1551595955.9,286046994.7,N
1551595975.8,286046991.9,Y
1551595995.6,286047008.9,P
1551596015.4,286046998.9,N
1551596035.3,286046996.6,N
1551596055.1,286046999.5,N
1551596075.9,286046999.8,N
1551596095.7,286047009.9,N
1551596115.5,286047015.3,N
1551596135.4,286047016.4,N
1551596155.2,286047008.4,N
1551596175.0,286047006.3,N
1551596176.0,286047006.3,N
1551596195.8,286047000.6,N
1551596215.6,286046998.7,N
1551596235.5,286047002.2,N
1551596255.3,286046998.4,N
1551596275.1,286047001.4,N
1551596295.9,286047011.3,N
1551596315.7,286047017.4,N
1551596335.6,286047025.6,Y
1551596355.4,286047025.2,P
1551596375.2,286047025.2,N
1551596395.1,286047018.2,N
1551596396.0,286047018.2,N
